Location: Golden Pond Observatory
(36.7667°N, 88.0167°W)
Time: 12:51:12
(UTC-06:00)

ISS - Visible Passes

Search period start: 20 November 2017 00:00
Search period end: 30 November 2017 00:00
Orbit: 402 x 407 km, 51.6° (Epoch: 21 November)

Date Brightness Start Highest point End Pass type
(mag) Time Alt. Az. Time Alt. Az. Time Alt. Az.
20 Nov -1.5 04:35:29 18° SSE 04:35:29 18° SSE 04:36:32 10° SSE visible
23 Nov -1.0 18:32:14 10° S 18:32:21 11° S 18:32:21 11° S visible
24 Nov -1.4 17:42:00 10° SE 17:42:43 11° SE 17:42:43 11° SE visible
25 Nov -2.9 18:23:15 10° SW 18:25:39 42° SSW 18:25:39 42° SSW visible
26 Nov -2.6 17:31:25 10° SSW 17:34:15 27° SE 17:35:49 19° E visible
26 Nov -0.6 19:07:50 10° W 19:08:30 14° W 19:08:30 14° W visible
27 Nov -3.3 18:15:03 10° WSW 18:18:14 49° NW 18:18:33 47° NNW visible
28 Nov -3.9 17:22:36 10° SW 17:25:52 79° SE 17:28:32 15° NE visible
28 Nov -0.6 19:00:43 10° WNW 19:01:11 12° NW 19:01:11 12° NW visible
29 Nov -1.9 18:07:26 10° W 18:10:07 23° NNW 18:11:05 20° N visible
